This is the latest recevied weather packets stored in our database for station/object KC8UZG. If no packets are shown the sender has not sent any weather packets the latest 10 day(s).
| Time | Temp. | Humidity | Pressure | Rain* | Wind** | Luminosity | Snow |
|---|---|---|---|---|---|---|---|
| 1777644325 | 8.33° C | 92% | 1010.6 hPa | 0.25 mm | - | 17 W/m² | - |
| 1777643730 | 8.89° C | 91% | 1010.5 hPa | 0 mm | - | 33 W/m² | - |
| 1777643136 | 8.89° C | 90% | 1010.7 hPa | 0 mm | - | 21 W/m² | - |
| 1777642516 | 8.89° C | 89% | 1010.6 hPa | 0 mm | - | 12 W/m² | - |
| 1777641921 | 8.89° C | 89% | 1010.8 hPa | 0 mm | - | 7 W/m² | - |
| 1777641327 | 8.89° C | 88% | 1010.8 hPa | 0 mm | - | 19 W/m² | - |
| 1777640733 | 8.89° C | 90% | 1010.8 hPa | 0 mm | - | 31 W/m² | - |
| 1777640139 | 8.33° C | 91% | 1010.4 hPa | 0 mm | - | 27 W/m² | - |
| 1777639518 | 8.33° C | 92% | 1010.8 hPa | 0 mm | - | 27 W/m² | - |
| 1777638924 | 7.78° C | 93% | 1010.8 hPa | 0 mm | - | 20 W/m² | - |
| 1777638331 | 7.78° C | 93% | 1010.8 hPa | 0 mm | - | 3 W/m² | - |
| 1777637736 | 7.78° C | 92% | 1010.8 hPa | 0 mm | - | 1 W/m² | - |
| 1777637116 | 7.78° C | 93% | 1010.8 hPa | 0 mm | - | 1 W/m² | - |
| 1777636521 | 7.22° C | 94% | 1010.8 hPa | 0 mm | - | 1 W/m² | - |
| 1777635927 | 7.78° C | 92% | - | 0 mm | - | 2 W/m² | - |
| 1777635333 | 7.78° C | 91% | - | 0 mm | - | 1 W/m² | - |
| 1777634740 | 7.78° C | 90% | - | 0 mm | - | 1 W/m² | - |
| 1777634118 | 7.78° C | 89% | - | 0 mm | - | 0 W/m² | - |
| 1777633524 | 7.78° C | 90% | - | 0 mm | - | 0 W/m² | - |
| 1777632932 | 7.78° C | 90% | - | 0 mm | - | 0 W/m² | - |
| 1777632336 | 7.78° C | 90% | - | 0 mm | - | 0 W/m² | - |
| 1777631717 | 7.22° C | 90% | - | 0 mm | - | 0 W/m² | - |
| 1777631123 | 7.22° C | 91% | - | 0 mm | - | 0 W/m² | - |
| 1777630528 | 7.22° C | 91% | 1010.8 hPa | 0 mm | - | 0 W/m² | - |
| 1777629933 | 7.22° C | 92% | 1010.8 hPa | 0 mm | - | 0 W/m² | - |
* Rain latest hour (hover to see other rain measurements)
** Current wind speed in m/s (hover to see current wind gust speed)